Probability
3 2 2 2 1 0 1 0 0 0 1 0 0 0 1 2 3 3 3 4 5 6 6 4 1 0 1 2 2 2 1 1 1 0 0 0 0 0 0 0 0 0 0
4 3 2 1 1 1 1 1 0 0 1 0 0 0 1 2 3 3 3 4 5 5 5 3 1 1 2 3 2 1 1 0 0 0 0 1 1 0 0 0 0 0 0
5 5 3 2 2 3 3 2 1 1 1 1 1 2 2 3 3 3 4 4 4 3 2 1 0 1 2 3 3 2 0 0 0 0 0 1 1 0 0 0 0 0 0
5 5 4 4 4 5 4 3 2 2 2 3 3 4 4 4 4 4 4 4 4 3 1 1 0 0 1 3 4 2 0 0 0 0 0 1 1 0 0 0 0 0 0
4 4 4 5 6 6 5 3 3 3 3 3 4 5 5 4 4 4 4 4 4 3 2 2 1 1 2 4 5 4 2 1 1 0 0 0 0 0 0 0 0 0 0
4 4 4 4 6 6 4 3 3 3 3 4 4 4 4 4 5 5 4 4 4 4 3 3 3 3 4 5 6 6 4 3 2 1 0 0 0 0 0 0 0 1 1
4 4 4 4 6 6 5 4 3 3 4 5 5 5 4 5 6 6 5 5 4 4 3 4 6 7 6 4 5 6 5 4 2 1 0 0 1 0 0 0 0 0 0
6 5 5 5 5 6 6 6 6 5 5 5 4 4 5 6 7 6 5 5 5 4 3 4 7 8 7 5 4 4 5 3 2 1 0 0 0 0 0 0 0 0 0
6 5 4 4 5 5 6 7 8 8 6 5 4 3 4 5 5 5 6 7 7 5 3 3 5 7 7 6 5 4 4 3 2 1 1 1 0 0 0 0 0 0 0
5 4 4 5 6 6 6 6 8 8 7 5 5 4 3 4 4 5 7 9 8 6 4 4 5 7 7 7 6 5 4 3 2 2 2 2 1 0 0 0 0 0 0
5 5 5 6 6 6 6 6 6 7 7 6 5 4 4 5 6 6 8 9 9 8 7 5 6 7 8 7 6 6 4 3 2 1 2 2 1 0 0 0 0 0 0
7 7 6 6 5 5 5 6 6 6 6 6 5 4 4 6 7 7 8 8 9 9 8 6 6 6 6 6 6 6 4 3 2 1 1 1 1 0 0 0 0 0 0
10 10 7 5 4 4 4 4 5 5 5 4 3 3 4 6 7 7 6 7 9 9 7 5 3 3 3 4 5 5 5 3 2 1 0 0 0 0 0 0 0 0 0
11 11 9 6 4 3 3 3 4 4 3 3 2 3 5 6 7 7 7 7 8 8 6 4 2 2 2 4 4 4 4 2 1 0 0 0 0 0 0 0 0 0 0
11 12 10 7 6 4 4 4 4 4 4 3 3 4 5 6 7 9 10 8 7 8 6 4 3 3 3 3 3 3 3 1 0 0 0 0 0 0 0 0 0 0 0
13 13 11 9 8 8 7 6 7 7 7 6 5 5 5 5 7 9 9 8 7 7 6 4 4 4 4 3 2 2 2 1 0 0 0 0 0 0 0 0 0 0 0
16 15 13 12 12 12 12 10 9 10 10 9 9 8 7 5 5 6 7 8 7 7 6 5 4 4 4 3 2 3 2 1 0 0 0 0 0 0 0 0 0 0 0
18 17 16 16 15 16 16 15 12 11 12 13 14 13 10 5 4 5 7 8 7 7 7 7 5 4 4 3 3 3 3 1 0 0 0 0 0 0 0 0 0 0 0
21 20 20 20 19 19 19 18 16 14 15 18 18 14 9 5 4 6 8 8 7 7 8 8 5 4 4 3 3 3 2 1 0 0 0 0 0 0 0 0 0 0 0
26 26 25 24 22 22 21 21 20 19 19 21 18 12 7 4 4 6 7 7 6 7 7 7 5 4 3 2 2 1 1 1 0 0 0 0 0 0 0 0 0 0 0
32 33 31 28 25 23 22 23 23 22 22 22 20 13 7 4 3 4 5 5 6 6 5 5 5 3 1 1 1 0 0 0 0 0 0 0 0 1 0 0 0 0 0
38 37 34 30 26 23 21 21 22 23 25 24 22 16 9 5 4 4 4 4 4 4 4 4 4 3 1 1 0 0 0 0 0 0 0 0 0 0 0 0 0 0 0
39 37 34 31 28 23 19 17 17 21 24 25 23 18 10 6 5 5 4 3 3 2 2 3 3 3 3 2 1 0 0 0 0 0 0 0 0 0 0 0 0 0 0
41 39 36 33 29 23 16 13 14 17 21 24 23 17 11 7 7 6 5 5 4 2 1 2 2 3 3 2 1 0 0 0 0 0 0 0 0 0 0 0 0 0 0
44 41 37 34 30 22 14 9 11 15 19 21 20 15 10 8 7 5 5 6 4 3 2 1 1 1 2 2 1 0 0 0 0 0 0 0 0 1 1 0 0 0 0
45 40 36 34 30 22 13 8 9 14 17 18 18 16 10 7 5 5 6 6 4 3 3 2 1 0 1 1 0 0 0 0 0 0 0 0 1 1 1 0 0 0 0
Wind_Speed
2 2 1 1 1 2 3 2 2 2 1 1 1 2 2 2 2 3 5 10 10 9 9 8 8 7 7 7 8 8 8 8 7 7 6 6 6 6 7 6 6 6 6
2 1 2 1 1 1 2 1 1 2 2 1 1 1 2 2 2 3 4 6 8 8 8 7 7 6 6 7 8 8 8 7 7 7 7 6 6 6 5 6 6 6 5
2 1 1 1 1 1 2 2 2 1 2 2 2 1 1 1 2 2 3 3 4 6 7 6 5 6 6 6 7 7 7 7 7 7 7 7 6 6 5 5 5 6 5
1 1 1 1 1 1 1 2 1 1 1 1 1 1 1 2 2 2 2 2 2 3 4 5 5 5 5 5 6 6 7 7 7 8 8 7 7 6 6 6 6 6 6
1 1 1 1 1 0 1 1 2 1 1 1 1 1 1 2 1 2 2 2 2 3 3 4 4 3 3 3 3 4 4 5 5 6 7 8 7 7 7 7 7 6 6
1 1 1 1 1 1 1 1 1 1 1 1 1 2 1 1 1 1 1 2 2 3 3 3 3 2 4 3 2 2 2 3 4 5 5 7 7 6 6 7 7 6 6
2 2 1 1 0 1 1 1 1 0 1 1 1 1 1 1 2 1 1 1 2 2 3 3 2 2 3 4 3 2 1 2 2 3 4 4 5 5 5 6 7 6 6
1 1 1 1 1 1 1 0 1 0 1 1 1 1 1 1 1 1 2 2 2 2 3 4 3 3 2 2 4 4 3 2 2 2 3 4 4 4 5 6 6 6 6
1 2 2 2 1 1 1 0 1 0 0 1 1 1 1 1 0 1 1 2 2 2 2 2 3 3 3 3 3 4 4 3 3 3 4 4 3 3 4 4 5 6 6
1 1 2 1 1 1 1 1 2 1 1 1 0 1 1 2 2 1 0 1 2 2 2 2 3 3 4 4 5 6 5 4 4 4 4 4 3 3 3 4 5 5 5
1 1 1 1 1 2 2 2 2 1 1 1 1 0 0 1 2 2 2 1 1 2 2 2 2 3 4 4 3 6 7 6 6 5 4 3 3 3 3 3 4 4 4
1 1 2 2 2 1 1 1 1 1 1 2 1 1 0 1 0 1 2 2 2 2 2 2 2 2 3 4 5 8 8 8 7 6 6 5 5 5 4 4 4 3 3
2 1 2 2 1 1 1 1 1 1 2 2 2 2 2 1 0 1 1 1 2 2 2 1 2 2 3 3 4 8 8 8 7 6 7 6 6 6 6 6 5 4 4
2 2 2 2 1 1 2 1 1 1 2 2 2 2 2 1 1 1 1 2 2 1 2 2 2 3 3 3 4 6 6 7 7 6 6 6 6 7 7 6 6 7 6
2 3 2 2 2 2 2 2 1 2 2 1 2 2 2 1 1 1 1 1 1 2 2 2 2 3 2 3 5 4 4 6 6 6 6 6 7 7 7 7 7 7 7
2 2 2 2 2 2 2 1 1 2 1 1 1 2 2 2 2 1 1 0 0 1 2 2 2 3 2 4 5 4 5 8 6 6 6 6 6 6 6 7 7 7 7
2 1 1 1 1 2 1 1 1 1 1 1 1 2 2 2 2 1 1 1 1 1 3 2 2 3 2 3 3 3 5 4 4 6 6 6 6 6 6 6 6 6 6
2 2 1 1 1 2 1 1 1 1 1 2 2 2 2 2 2 2 1 1 1 2 3 3 3 2 2 3 3 3 4 5 4 6 7 7 6 6 5 5 5 5 5
2 2 2 1 1 1 1 0 0 0 1 2 1 1 1 1 1 2 1 1 1 1 2 3 3 2 2 2 2 2 3 3 4 6 8 7 7 7 6 5 5 5 4
2 2 2 2 1 1 1 0 0 0 1 1 1 1 2 1 2 2 1 1 0 1 2 2 2 2 2 2 2 2 1 2 2 4 5 7 8 8 7 7 6 6 5
3 3 2 2 1 2 1 0 1 1 1 1 1 1 2 4 5 3 2 1 1 0 1 1 2 2 2 2 2 2 2 2 2 2 3 4 4 4 5 7 8 8 7
2 3 2 2 1 1 2 3 1 1 0 1 1 0 2 4 3 3 3 3 2 1 1 0 1 2 2 2 1 2 1 1 1 1 2 3 5 5 5 5 9 11 10
3 3 3 2 2 2 2 2 0 1 1 1 1 0 1 2 3 2 1 1 2 2 1 1 0 1 1 2 2 2 2 2 2 2 2 2 3 4 4 6 13 13 12
4 3 3 3 3 3 2 2 1 3 2 2 2 1 1 1 1 0 2 1 1 1 2 2 1 1 1 1 2 3 3 2 2 2 2 2 3 3 3 4 12 15 14
4 4 3 4 3 3 3 3 2 3 2 2 2 2 2 2 1 1 2 2 1 1 0 1 2 2 3 3 2 1 2 2 2 2 2 2 2 2 2 3 7 14 14
4 4 4 4 4 4 5 4 3 3 2 2 3 3 3 2 3 3 3 2 3 2 1 1 2 3 3 4 5 3 2 2 2 2 2 2 2 2 2 2 4 6 7
Wind_Direction
103 110 103 108 122 144 160 178 153 130 88 67 68 90 77 74 89 113 135 148 153 160 163 167 174 183 191 199 200 200 202 201 202 206 209 209 210 208 205 202 197 195 201
93 112 135 112 118 140 131 139 130 132 138 126 98 73 76 90 104 115 128 150 156 159 165 173 181 184 190 196 199 200 201 203 205 205 207 209 210 204 200 201 197 193 194
113 126 149 156 177 159 152 147 162 147 149 152 145 139 133 113 101 108 121 142 159 167 175 181 191 191 195 196 197 201 203 205 208 205 205 202 204 201 197 199 201 197 196
123 158 127 130 187 176 159 137 133 116 129 133 124 141 137 125 131 127 131 147 153 157 168 178 188 189 197 202 206 210 210 209 207 206 206 202 203 199 198 200 201 197 199
104 107 88 55 282 115 93 131 125 140 144 138 154 152 138 131 142 136 141 135 141 144 152 161 164 162 174 175 187 205 207 207 204 202 197 199 198 198 200 205 206 205 204
64 48 98 45 4 66 57 67 90 126 159 154 132 100 111 138 127 124 148 131 126 140 137 138 144 130 122 118 127 167 191 193 191 192 199 203 202 196 198 203 204 202 201
64 67 42 103 85 95 83 90 103 193 169 136 123 134 163 121 130 130 112 97 95 97 104 114 127 129 124 107 86 91 118 162 169 181 187 183 184 186 191 197 194 198 198
30 60 62 58 74 110 95 45 90 313 222 165 180 171 159 78 50 104 121 127 105 93 101 103 101 100 108 109 88 82 81 100 126 162 167 163 167 173 181 185 187 193 197
83 37 37 32 18 90 93 108 83 325 263 224 199 182 158 133 131 61 67 88 96 94 97 96 92 86 90 87 87 77 81 81 89 101 114 118 134 151 161 173 178 180 182
65 59 49 44 21 56 69 2 75 335 305 290 221 222 152 140 152 137 60 90 104 91 89 101 96 95 90 88 78 71 79 80 89 99 106 111 117 136 150 159 162 164 170
118 71 59 54 52 58 58 27 33 21 5 3 324 327 108 157 174 160 162 156 109 90 89 94 103 100 96 96 91 77 78 77 79 84 88 95 99 113 133 149 161 167 173
116 73 67 44 59 58 47 41 350 40 28 4 340 324 242 145 172 144 156 160 137 113 100 86 89 98 102 95 96 93 88 80 75 75 77 79 81 87 104 114 124 142 157
110 81 63 61 51 38 45 41 15 30 23 3 356 341 346 359 47 104 131 138 124 127 118 97 93 96 97 97 100 104 95 89 81 77 76 76 76 77 81 88 91 97 103
89 109 98 103 84 36 31 40 7 41 45 7 12 11 338 353 28 86 117 139 137 137 126 115 95 93 96 108 116 121 105 99 93 88 83 79 75 74 75 79 81 81 82
112 105 107 101 90 73 40 29 56 45 45 26 17 21 357 351 31 77 105 160 149 148 143 137 123 115 126 117 144 136 119 116 112 104 96 90 85 79 76 77 78 80 82
57 81 99 104 99 94 81 38 61 70 47 34 49 41 11 0 21 41 83 87 52 129 136 142 135 140 138 138 146 137 128 129 123 124 118 109 103 97 89 84 82 82 86
99 89 90 90 100 100 98 68 14 99 70 43 34 53 31 24 12 20 42 71 67 104 127 128 126 131 127 117 139 152 151 148 147 147 140 131 122 114 104 98 93 91 91
137 126 125 120 136 117 113 108 331 62 75 61 49 43 19 22 17 12 12 51 67 107 131 140 142 144 145 142 159 186 167 159 155 160 157 151 144 137 129 120 112 105 101
155 147 145 143 131 108 112 116 310 29 71 76 73 64 36 26 10 13 14 43 42 101 124 146 152 147 152 157 158 199 158 151 161 159 164 163 160 156 150 143 136 130 125
172 169 155 162 169 159 149 187 226 197 94 88 91 85 62 37 25 349 5 41 25 111 142 156 152 152 147 160 168 196 168 184 176 171 168 165 169 171 169 164 160 155 153
190 168 162 169 192 185 188 165 268 203 139 109 93 98 97 81 65 39 27 9 14 44 164 174 165 148 153 159 194 210 201 189 183 169 159 171 172 181 184 185 183 179 173
181 157 172 179 194 176 87 85 19 305 154 161 141 108 137 126 105 86 63 51 49 78 44 359 169 169 169 170 190 217 210 182 212 188 182 197 180 190 193 187 187 185 184
176 173 177 173 157 133 125 107 82 275 237 220 167 225 273 134 154 156 155 128 80 84 129 205 237 230 179 171 196 226 218 213 225 204 189 222 204 198 191 190 182 185 187
179 179 180 182 175 169 167 158 217 239 241 204 182 211 254 130 209 174 213 203 202 213 235 222 220 232 172 178 218 226 228 221 218 217 196 232 222 214 192 178 185 186 189
183 189 186 185 187 168 178 181 200 240 236 221 198 201 210 176 180 209 232 236 230 223 228 148 167 180 176 186 199 248 239 226 236 225 210 218 230 217 192 184 193 192 193
192 195 193 189 190 179 184 188 197 233 237 230 204 184 189 188 182 203 230 230 240 248 241 194 196 215 212 212 210 212 237 245 253 242 215 212 227 218 230 197 180 185 198